Stations météo

réclame
Mon MeteoGroup
De Bilt, Pays-Bas (6260): Température de l'air & dewpoint: 19.01.2020 07:00:00 - 25.01.2020 07:00:00 (CET)De Bilt, Pays-Bas (6260): Température de l'air 5cm & Température de l'air -5cm: 19.01.2020 07:00:00 - 25.01.2020 07:00:00 (CET)De Bilt, Pays-Bas (6260): Température de l'air -20cm & Température de l'air -100cm: 19.01.2020 07:00:00 - 25.01.2020 07:00:00 (CET)De Bilt, Pays-Bas (6260): Vitesse du vent & gusts: 19.01.2020 07:00:00 - 25.01.2020 07:00:00 (CET)De Bilt, Pays-Bas (6260): Direction du vent: 19.01.2020 07:00:00 - 25.01.2020 07:00:00 (CET)De Bilt, Pays-Bas (6260): reduced air pressure: 19.01.2020 07:00:00 - 25.01.2020 07:00:00 (CET)De Bilt, Pays-Bas (6260): visibility: 19.01.2020 07:00:00 - 25.01.2020 07:00:00 (CET)De Bilt, Pays-Bas (6260): Quantités de précipitations: 19.01.2020 07:00:00 - 25.01.2020 07:00:00 (CET)
Date & Time tt [°C] td [°C] tt 5cm [°C] tt -5cm [°C] tt -20cm [°C] tt -100cm [°C] ff [km/h] ff [knt] fx [km/h] fx [knt] dd ppp [hPa] vv [km] rr [mm]
25.01.2020 07:00:00 1,9 1,4 1,9 5,2 5,9 7,9 7 4 14 8 SSE 1021,8 3,8 0,0
25.01.2020 06:00:00 1,9 1,1 1,9 5,2 5,9 7,9 14 8 18 10 S 1021,4 3,8 0,0
25.01.2020 05:00:00 1,9 1,2 1,9 5,2 5,9 7,9 11 6 14 8 S 1021,5 3,8 0,0
25.01.2020 04:00:00 2,0 1,2 1,9 5,3 5,9 7,9 11 6 22 12 S 1021,8 4,3 0,0
25.01.2020 03:00:00 2,2 1,3 2,1 5,3 5,9 7,9 14 8 22 12 S 1022,2 3,7 0,0
25.01.2020 02:00:00 2,2 1,5 2,2 5,3 5,9 7,9 11 6 18 10 S 1022,4 2,8 0,0
25.01.2020 01:00:00 2,3 1,6 2,2 5,3 6,0 7,9 11 6 18 10 S 1022,5 2,7 0,0
25.01.2020 00:00:00 2,3 1,5 2,2 5,4 6,0 7,9 11 6 18 10 S 1022,7 2,9 0,0
24.01.2020 23:00:00 2,3 1,6 2,2 5,4 6,0 7,9 11 6 18 10 S 1022,9 2,4 0,0
24.01.2020 22:00:00 2,4 1,7 2,4 5,4 6,0 7,9 7 4 14 8 S 1023,0 2,2 0,0
24.01.2020 21:00:00 2,5 1,7 2,4 5,4 5,9 7,9 7 4 14 8 SSW 1023,1 2,9 0,0
24.01.2020 20:00:00 2,5 1,7 2,4 5,4 5,9 7,9 14 8 18 10 S 1023,2 2,4 0,0
24.01.2020 19:00:00 2,7 1,8 2,7 5,4 5,9 7,9 11 6 18 10 SSW 1023,0 3,5 0,0
24.01.2020 18:00:00 3,0 1,7 2,9 5,4 5,9 7,9 11 6 18 10 SSW 1022,7 4,2 0,0
24.01.2020 17:00:00 3,1 1,8 3,0 5,4 5,9 7,9 7 4 14 8 S 1022,4 4,4 0,0
24.01.2020 16:00:00 3,1 1,8 3,1 5,3 5,8 7,9 11 6 18 10 S 1022,3 4,2 0,0
24.01.2020 15:00:00 3,1 1,7 3,3 5,2 5,8 7,9 18 10 25 14 S 1022,1 4,1 0,0
24.01.2020 14:00:00 3,3 1,5 3,6 5,1 5,8 7,9 11 6 14 8 S 1023,3 6 0,0
24.01.2020 13:00:00 3,2 1,2 3,7 5,0 5,8 7,9 7 4 14 8 SW 1023,7 6 0,0
24.01.2020 12:00:00 2,9 1,5 3,4 4,9 5,8 7,9 11 6 14 8 S 1023,9 5 0,0
24.01.2020 11:00:00 2,7 1,6 2,8 4,9 5,8 7,9 11 6 14 8 SSE 1024,2 5 0,0
24.01.2020 10:00:00 2,2 1,0 2,1 4,9 5,8 7,9 7 4 14 8 SW 1024,3 4,9 0,0
24.01.2020 09:00:00 1,9 1,4 1,7 4,9 5,8 7,9 7 4 18 10 WSW 1024,0 3,1 0,0
24.01.2020 08:00:00 1,8 1,4 1,7 4,8 5,9 7,9 7 4 14 8 SSW 1023,6 1,3 0,0
24.01.2020 07:00:00 1,6 1,2 1,6 4,8 5,9 7,9 7 4 11 6 SSE 1023,6 1,5 0,0
24.01.2020 06:00:00 1,8 1,1 1,8 4,9 6,0 7,9 7 4 14 8 SSW 1023,8 1,3 0,0
24.01.2020 05:00:00 1,9 1,1 1,5 4,9 6,0 7,9 7 4 14 8 SSW 1024,1 2,2 0,0
24.01.2020 04:00:00 1,2 0,5 0,6 5,0 6,1 7,9 7 4 11 6 SW 1024,7 2,6 0,0
24.01.2020 03:00:00 0,5 0,4 0,3 5,1 6,2 7,9 4 2 7 4 SSE 1025,3 1,7 0,0
24.01.2020 02:00:00 0,4 -0,1 0,0 5,2 6,2 7,9 4 2 7 4 NE 1025,8 1,7 0,0
24.01.2020 01:00:00 -0,6 -0,9 -1,6 5,4 6,3 7,9 4 2 4 2 NE 1026,4 1,9 0,0
24.01.2020 00:00:00 -1,4 -1,8 -3,1 5,5 6,4 7,9 4 2 7 4 NE 1026,7 1,1 0,0
23.01.2020 23:00:00 -1,3 -1,5 -3,4 5,7 6,4 7,9 4 2 4 2 E 1026,9 0,2 0,0
23.01.2020 22:00:00 0,0 -0,2 -2,2 5,9 6,5 8,0 4 2 7 4 E 1027,4 0,2 0,0
23.01.2020 21:00:00 0,3 -0,3 -2,7 6,1 6,5 8,0 7 4 7 4 E 1027,7 1,2 0,0
23.01.2020 20:00:00 1,0 0,5 -2,1 6,3 6,6 8,0 4 2 11 6 ESE 1028,2 2,6 0,0
23.01.2020 19:00:00 1,2 0,8 -1,7 6,4 6,6 8,0 7 4 11 6 ESE 1028,4 3,1 0,0
23.01.2020 18:00:00 1,9 1,6 -0,7 6,5 6,6 8,0 4 2 7 4 E 1028,7 2,7 0,0
23.01.2020 17:00:00 3,5 2,5 1,0 6,6 6,5 8,0 4 2 4 2 E 1028,9 6 0,0
23.01.2020 16:00:00 5,0 2,4 4,2 6,6 6,5 8,0 4 2 11 6 E 1029,6 10 0,0
23.01.2020 15:00:00 5,9 3,6 5,3 6,5 6,4 8,0 7 4 11 6 SE 1030,2 9 0,0
23.01.2020 14:00:00 5,9 2,8 6,1 6,4 6,4 8,0 7 4 11 6 SSE 1031,2 12 0,0
23.01.2020 13:00:00 6,6 4,0 7,6 6,2 6,3 8,0 4 2 7 4 SSE 1031,8 12 0,0
23.01.2020 12:00:00 5,5 4,4 5,9 6,2 6,3 8,0 7 4 11 6 SE 1032,7 6 0,0
23.01.2020 11:00:00 5,0 4,5 5,1 6,1 6,3 8,0 7 4 11 6 SE 1033,7 3,8 0,0
23.01.2020 10:00:00 4,9 4,3 5,0 6,1 6,3 8,0 7 4 11 6 SE 1033,7 3,0 0,0
23.01.2020 09:00:00 5,0 4,7 4,9 6,1 6,3 8,0 7 4 7 4 SE 1033,7 2,8 0,0
23.01.2020 08:00:00 5,1 4,9 5,1 6,1 6,3 8,0 7 4 11 6 SE 1033,7 0,8 0,0
23.01.2020 07:00:00 5,4 5,2 5,3 6,1 6,3 8,0 7 4 11 6 SSE 1033,9 1,6 0,0
23.01.2020 06:00:00 5,7 5,5 5,6 6,1 6,2 8,0 4 2 7 4 SE 1034,3 3,5 0,0
23.01.2020 05:00:00 5,7 5,6 5,6 6,1 6,2 8,0 4 2 4 2 SE 1034,7 0,1 0,0
23.01.2020 04:00:00 5,8 5,7 5,8 6,0 6,2 8,0 4 2 7 4 E 1035,1 0,7 0,2
23.01.2020 03:00:00 5,8 5,7 5,8 6,0 6,2 8,0 4 2 4 2 SE 1035,6 0,2 0,2
23.01.2020 02:00:00 6,0 5,9 5,9 6,0 6,2 8,0 4 2 4 2 SSE 1036,1 0,7 0,0
23.01.2020 01:00:00 6,1 5,9 5,8 6,0 6,1 8,0 4 2 7 4 WNW 1036,3 1,3 0,0
23.01.2020 00:00:00 6,1 6,0 5,9 5,9 6,1 8,0 4 2 7 4 WSW 1036,5 1,5 0,0
22.01.2020 23:00:00 5,9 5,6 5,6 5,9 6,1 8,0 0 0 4 2 N 1036,5 0,4 0,0
22.01.2020 22:00:00 5,9 5,6 5,7 5,9 6,0 8,0 0 0 4 2 N 1036,6 0,5 0,0
22.01.2020 21:00:00 6,1 5,7 5,9 5,9 6,0 8,0 4 2 4 2 WSW 1036,6 0,8 0,1
22.01.2020 20:00:00 6,1 6,0 5,9 5,8 6,0 8,0 4 2 7 4 W 1036,5 1,1 0,1
22.01.2020 19:00:00 6,2 5,9 6,1 5,8 5,9 8,1 7 4 7 4 WSW 1036,3 1,0 0,1
22.01.2020 18:00:00 6,1 5,8 5,9 5,7 5,9 8,1 7 4 7 4 SW 1036,2 1,1 0,0
22.01.2020 17:00:00 6,1 5,8 6,0 5,6 5,8 8,1 4 2 4 2 WSW 1036,2 1,0 0,0
22.01.2020 16:00:00 6,2 5,6 6,2 5,5 5,8 8,1 0 0 7 4 N 1036,2 1,8 0,0
22.01.2020 15:00:00 6,0 5,7 6,0 5,4 5,7 8,1 4 2 4 2 WNW 1036,1 1,6 0,0
22.01.2020 14:00:00 5,5 5,2 5,6 5,2 5,7 8,1 4 2 11 6 W 1036,3 2,2 0,0
22.01.2020 13:00:00 5,0 4,7 5,2 5,1 5,6 8,1 7 4 11 6 SW 1036,4 1,7 0,0
22.01.2020 12:00:00 4,3 4,1 4,6 5,0 5,6 8,1 4 2 7 4 SW 1037,1 1,5 0,0
22.01.2020 11:00:00 3,8 3,5 3,9 5,0 5,6 8,1 7 4 11 6 SW 1037,2 1,0 0,1
22.01.2020 10:00:00 3,4 3,2 3,4 4,9 5,6 8,1 7 4 11 6 SW 1037,2 0,8 0,0
22.01.2020 09:00:00 3,0 2,9 2,9 4,9 5,6 8,1 7 4 11 6 SSW 1036,7 1,8 0,0
22.01.2020 08:00:00 2,6 2,5 2,6 4,9 5,6 8,1 7 4 11 6 SW 1036,8 1,2 0,0
22.01.2020 07:00:00 2,4 2,2 2,4 4,9 5,6 8,1 7 4 14 8 SSW 1036,3 1,1 0,0
22.01.2020 06:00:00 2,1 2,0 2,1 4,9 5,6 8,1 4 2 14 8 SSW 1036,9 0,9 0,0
22.01.2020 05:00:00 1,8 1,6 1,8 4,9 5,6 8,1 7 4 11 6 SSW 1037,1 2,0 0,0
22.01.2020 04:00:00 1,6 1,5 1,7 4,9 5,6 8,1 4 2 14 8 SSW 1037,6 0,9 0,0
22.01.2020 03:00:00 1,7 1,6 1,8 4,9 5,6 8,1 7 4 11 6 SSW 1038,0 0,4 0,0
22.01.2020 02:00:00 1,6 1,5 1,7 4,8 5,6 8,2 7 4 11 6 SSW 1037,9 0,3 0,0
22.01.2020 01:00:00 1,7 1,6 1,7 4,8 5,6 8,2 4 2 11 6 SSW 1038,8 0,3 0,0
22.01.2020 00:00:00 1,7 1,6 1,8 4,8 5,6 8,2 11 6 14 8 SSW 1038,8 0,4 0,0
21.01.2020 23:00:00 1,8 1,7 1,8 4,8 5,6 8,2 7 4 11 6 SW 1039,2 0,2 0,0
21.01.2020 22:00:00 1,9 1,6 2,0 4,8 5,6 8,2 11 6 14 8 SSW 1039,2 0,3 0,0
21.01.2020 21:00:00 2,0 1,9 2,0 4,8 5,5 8,2 7 4 11 6 SW 1039,9 1,0 0,0
21.01.2020 20:00:00 2,0 1,9 2,0 4,8 5,5 8,2 11 6 22 12 SSW 1039,5 0,6 0,0
21.01.2020 19:00:00 2,0 1,8 1,9 4,7 5,5 8,2 11 6 18 10 S 1039,8 0,3 0,0
21.01.2020 18:00:00 1,9 1,7 1,9 4,7 5,5 8,2 7 4 11 6 WSW 1040,6 0,2 0,0
21.01.2020 17:00:00 1,9 1,7 2,0 4,6 5,5 8,2 7 4 11 6 SW 1040,6 0,6 0,0
21.01.2020 16:00:00 1,7 1,3 1,9 4,5 5,5 8,2 11 6 14 8 S 1040,6 0,6 0,0
21.01.2020 15:00:00 1,3 1,0 1,5 4,4 5,5 8,2 7 4 14 8 SSW 1041,2 0,9 0,0
21.01.2020 14:00:00 0,7 0,6 1,2 4,4 5,5 8,2 7 4 14 8 SSW 1041,6 1,4 0,0
21.01.2020 13:00:00 0,3 0,2 1,0 4,3 5,5 8,2 7 4 14 8 SSW 1042,3 1,2 0,0
21.01.2020 12:00:00 -0,4 -0,6 -0,2 4,4 5,6 8,2 7 4 14 8 S 1042,6 0,3 0,0
21.01.2020 11:00:00 -1,0 -1,3 -0,7 4,4 5,6 8,2 7 4 14 8 S 1043,0 1,0 0,0
21.01.2020 10:00:00 -1,3 -1,7 -1,2 4,5 5,7 8,3 7 4 14 8 S 1042,8 1,0 0,0
21.01.2020 09:00:00 -1,0 -1,2 -2,3 4,6 5,7 8,3 4 2 14 8 S 1042,6 5 0,0
21.01.2020 08:00:00 -0,4 -1,0 -1,6 4,7 5,8 8,3 7 4 14 8 S 1042,5 7 0,0
21.01.2020 07:00:00 -0,9 -1,4 -3,3 4,8 5,8 8,3 7 4 11 6 SSE 1042,7 4,6 0,0
21.01.2020 06:00:00 -1,0 -1,1 -2,6 4,9 5,8 8,3 7 4 11 6 S 1042,8 2,5 0,0
21.01.2020 05:00:00 -0,5 -0,7 -1,4 4,9 5,8 8,3 4 2 11 6 S 1043,1 0,3 0,0
21.01.2020 04:00:00 0,7 0,5 -0,1 5,0 5,8 8,3 4 2 14 8 SSW 1043,6 1,9 0,0
21.01.2020 03:00:00 1,1 1,0 1,1 5,0 5,9 8,3 7 4 11 6 S 1044,3 0,1 0,0
21.01.2020 02:00:00 1,5 1,4 1,3 5,1 5,9 8,3 7 4 14 8 S 1044,1 0,1 0,0
21.01.2020 01:00:00 0,7 0,5 0,0 5,1 5,9 8,3 4 2 7 4 S 1044,6 0,1 0,0
21.01.2020 00:00:00 1,9 1,8 1,2 5,2 5,9 8,3 4 2 7 4 S 1045,0 0,1 0,0
20.01.2020 23:00:00 2,5 2,3 0,6 5,3 5,9 8,3 7 4 11 6 S 1045,3 0,3 0,0
20.01.2020 22:00:00 1,8 1,4 -0,7 5,4 5,9 8,3 4 2 7 4 S 1045,6 0,4 0,0
20.01.2020 21:00:00 3,6 3,2 2,4 5,4 5,9 8,3 7 4 14 8 S 1045,8 4,7 0,0
20.01.2020 20:00:00 4,4 3,5 3,1 5,4 5,9 8,4 4 2 11 6 S 1045,9 8 0,0
20.01.2020 19:00:00 5,3 3,8 3,6 5,4 5,8 8,4 7 4 11 6 SSW 1045,7 12 0,0
20.01.2020 18:00:00 5,4 3,9 4,1 5,3 5,7 8,4 7 4 11 6 SW 1046,0 13 0,0
20.01.2020 17:00:00 6,3 4,0 5,7 5,2 5,7 8,4 7 4 14 8 SW 1046,4 17 0,0
20.01.2020 16:00:00 6,7 4,0 6,4 5,0 5,6 8,4 11 6 14 8 SSW 1046,3 17 0,0
20.01.2020 15:00:00 6,7 4,4 6,6 4,8 5,6 8,4 7 4 11 6 SSW 1046,7 16 0,0
20.01.2020 14:00:00 7,0 3,9 6,9 4,6 5,5 8,4 7 4 14 8 SW 1047,1 22 0,0
20.01.2020 13:00:00 6,8 4,4 6,7 4,4 5,5 8,4 4 2 11 6 SSW 1047,6 22 0,0
20.01.2020 12:00:00 5,4 4,7 5,4 4,3 5,6 8,4 4 2 7 4 WSW 1048,1 14 0,0
20.01.2020 11:00:00 3,9 3,3 4,0 4,3 5,6 8,4 4 2 7 4 SSE 1048,1 8 0,0
20.01.2020 10:00:00 2,3 2,2 0,6 4,3 5,6 8,4 4 2 7 4 SW 1047,9 4,7 0,0
20.01.2020 09:00:00 1,2 1,1 -0,1 4,3 5,7 8,4 7 4 7 4 SW 1047,7 4,1 0,0
20.01.2020 08:00:00 1,0 0,9 -0,1 4,4 5,7 8,4 4 2 7 4 SSW 1047,5 3,6 0,0
20.01.2020 07:00:00 0,7 0,6 -0,2 4,4 5,8 8,4 4 2 4 2 S 1047,5 4,9 0,0
20.01.2020 06:00:00 0,1 -0,1 -0,7 4,5 5,8 8,4 4 2 7 4 S 1047,2 4,7 0,0
20.01.2020 05:00:00 -0,5 -1,0 -1,3 4,6 5,9 8,4 0 0 7 4 N 1047,4 8 0,0
20.01.2020 04:00:00 -1,2 -1,6 -2,6 4,7 6,0 8,4 4 2 4 2 W 1047,4 3,9 0,0
20.01.2020 03:00:00 -2,0 -2,3 -4,5 4,8 6,0 8,5 4 2 7 4 WNW 1047,4 0,5 0,0
20.01.2020 02:00:00 -1,3 -1,4 -3,7 4,9 6,1 8,5 4 2 7 4 WNW 1047,4 2,8 0,0
20.01.2020 01:00:00 -1,1 -1,4 -3,8 5,0 6,1 8,5 4 2 7 4 WNW 1047,1 0,3 0,0
20.01.2020 00:00:00 -0,4 -0,8 -3,7 5,1 6,2 8,5 4 2 11 6 WNW 1047,2 0,2 0,0
19.01.2020 23:00:00 0,7 0,5 -2,4 5,2 6,2 8,5 4 2 11 6 NW 1046,7 1,5 0,0
19.01.2020 22:00:00 1,4 1,0 -2,1 5,3 6,2 8,5 7 4 11 6 NW 1046,4 4,0 0,0
19.01.2020 21:00:00 2,1 1,7 -0,7 5,4 6,2 8,5 7 4 11 6 NW 1045,8 7 0,0
19.01.2020 20:00:00 3,3 2,4 0,5 5,5 6,2 8,5 7 4 11 6 NNW 1045,4 10 0,0
19.01.2020 19:00:00 3,8 2,8 0,2 5,6 6,2 8,5 11 6 14 8 NW 1044,8 11 0,0
19.01.2020 18:00:00 4,2 2,3 1,4 5,6 6,2 8,5 7 4 14 8 NNW 1044,1 12 0,0
19.01.2020 17:00:00 6,9 2,8 5,4 5,5 6,2 8,5 14 8 22 12 N 1043,1 14 0,0
19.01.2020 16:00:00 7,6 1,6 6,7 5,4 6,1 8,5 14 8 25 14 N 1042,1 15 0,0
19.01.2020 15:00:00 7,8 1,9 7,1 5,3 6,1 8,5 18 10 32 18 N 1041,4 14 0,0
19.01.2020 14:00:00 7,8 2,3 7,7 5,1 6,1 8,5 11 6 29 16 N 1040,8 14 0,0
19.01.2020 13:00:00 7,9 2,5 8,0 5,0 6,1 8,5 14 8 29 16 N 1040,4 14 0,0
19.01.2020 12:00:00 6,5 3,2 6,4 4,9 6,2 8,5 7 4 14 8 NNW 1039,9 15 0,0
19.01.2020 11:00:00 5,1 2,5 4,8 5,0 6,3 8,5 11 6 18 10 NNW 1039,4 13 0,0
19.01.2020 10:00:00 3,4 1,9 1,7 5,0 6,3 8,5 11 6 14 8 NW 1038,3 13 0,0
19.01.2020 09:00:00 2,3 1,3 -0,7 5,1 6,4 8,5 11 6 14 8 NW 1037,1 15 0,0
19.01.2020 08:00:00 1,6 0,9 -0,8 5,2 6,5 8,5 7 4 11 6 NW 1035,6 13 0,0
19.01.2020 07:00:00 2,8 1,4 -0,1 5,3 6,5 8,5 7 4 14 8 NNW 1034,5 16 0,0

tt = Température de l'air
td = dewpoint
tt 5cm = Température de l'air 5cm
tt -5cm = Température de l'air -5cm
tt -20cm = Température de l'air -20cm
tt -100cm = Température de l'air -100cm
ff = Vitesse du vent
fx = gusts
dd = Direction du vent
ppp = reduced air pressure
vv = visibility
rr = Quantités de précipitations

stations d'obs. à proximité